Voltar ao catálogo

STARLINK-3740

AtivoComunicaçõesVLEO
NORAD 52265·PAYLOAD·🇺🇸 United States

Lançado Apr 21, 2022 de Cape Canaveral Space Force Station

Loading…

Próximas Passagens (próximas 24 horas)

TLE

AtualizadoSource: CelesTrak SupGP

Época: Sep 15, 2026, 01:49 UTC

1 52265C 22041E   26258.07618056  .00044671  00000+0  13200-2 0  2582
2 52265  53.1586 325.1852 0001094  73.9683 131.4512 15.34364382    13

Acompanhe STARLINK-3740 em tempo real com AllMySat

Download on the App Store